When you browse on this site, cookies collect data to enhance your experience and personalize the content and advertising you see.
Visit our Privacy Policy to learn more. By continuing to use the site, you agree to this use of cookies and data.
  • In Austria
  • List of Countries
  • For 7 days
  • Water Temperature
  • Satellite Maps
  • Weather Map
  • News
  • Weather Widgets
  • user-avatar
    Login

    Hourly Weather Salta

    Today, 17 November, Saturday

    Time Temperature Precipitation Wind Pressure Humidity
    00:00 +22°C° 0.2 mm 1 mps 648 mmHg 84%
    01:00 +22°C° 0.2 mm 1 mps 648 mmHg 83%
    02:00 +22°C° 0.2 mm 1 mps 648 mmHg 83%
    03:00 +22°C° 0 mm 1 mps 648 mmHg 82%
    04:00 +22°C° 0 mm 1 mps 648 mmHg 80%
    05:00 +22°C° 0 mm 1 mps 648 mmHg 79%
    06:00 +23°C° 0 mm 1 mps 649 mmHg 72%
    07:00 +25°C° 0 mm 1 mps 649 mmHg 65%
    08:00 +26°C° 0 mm 2 mps 650 mmHg 58%
    09:00 +28°C° 0 mm 2 mps 650 mmHg 52%
    10:00 +30°C° 0 mm 2 mps 650 mmHg 46%
    11:00 +31°C° 0 mm 3 mps 650 mmHg 41%
    12:00 +33°C° 0 mm 3 mps 650 mmHg 38%
    13:00 +34°C° 0 mm 3 mps 649 mmHg 36%
    14:00 +35°C° 0 mm 3 mps 649 mmHg 33%
    15:00 +35°C° 0.3 mm 3 mps 649 mmHg 35%
    16:00 +34°C° 0.3 mm 3 mps 648 mmHg 37%
    17:00 +33°C° 0.3 mm 3 mps 648 mmHg 39%
    18:00 +30°C° 0.4 mm 2 mps 648 mmHg 49%
    19:00 +28°C° 0.4 mm 2 mps 648 mmHg 59%
    20:00 +26°C° 0.4 mm 1 mps 648 mmHg 69%
    21:00 +25°C° 1 mm 1 mps 649 mmHg 71%
    22:00 +24°C° 1 mm 1 mps 650 mmHg 74%
    23:00 +24°C° 1 mm 1 mps 651 mmHg 76%

    Tomorrow, 18 November, Sunday

    Time Temperature Precipitation Wind Pressure Humidity
    00:00 +24°C° 0.3 mm 2 mps 650 mmHg 75%
    01:00 +23°C° 0.3 mm 2 mps 650 mmHg 74%
    02:00 +23°C° 0.3 mm 2 mps 650 mmHg 74%
    03:00 +23°C° 0 mm 2 mps 651 mmHg 76%
    04:00 +21°C° 0 mm 2 mps 651 mmHg 78%
    05:00 +21°C° 0 mm 2 mps 651 mmHg 80%
    06:00 +21°C° 0.5 mm 3 mps 652 mmHg 80%
    07:00 +21°C° 0.5 mm 3 mps 653 mmHg 80%
    08:00 +21°C° 0.5 mm 4 mps 654 mmHg 80%
    09:00 +20°C° 0.6 mm 3 mps 654 mmHg 81%
    10:00 +20°C° 0.6 mm 3 mps 654 mmHg 82%
    11:00 +19°C° 0.6 mm 3 mps 653 mmHg 83%
    12:00 +19°C° 0.2 mm 3 mps 653 mmHg 83%
    13:00 +19°C° 0.2 mm 2 mps 652 mmHg 84%
    14:00 +18°C° 0.2 mm 2 mps 652 mmHg 84%
    15:00 +19°C° 0.1 mm 2 mps 652 mmHg 82%
    16:00 +19°C° 0.1 mm 2 mps 651 mmHg 79%
    17:00 +19°C° 0.1 mm 2 mps 651 mmHg 76%
    18:00 +20°C° 0.1 mm 1 mps 652 mmHg 79%
    19:00 +19°C° 0.1 mm 1 mps 652 mmHg 82%
    20:00 +19°C° 0.1 mm 1 mps 653 mmHg 84%
    21:00 +19°C° 0 mm 1 mps 653 mmHg 84%
    22:00 +18°C° 0 mm 1 mps 653 mmHg 85%
    23:00 +18°C° 0 mm 1 mps 653 mmHg 85%

    Day after tomorrow, 19 November, Monday

    Time Temperature Precipitation Wind Pressure Humidity
    00:00 +18°C° 0 mm 1 mps 652 mmHg 85%
    01:00 +18°C° 0 mm 1 mps 652 mmHg 85%
    02:00 +18°C° 0 mm 1 mps 651 mmHg 85%
    03:00 +18°C° 0 mm 1 mps 651 mmHg 85%
    04:00 +16°C° 0 mm 1 mps 651 mmHg 85%
    05:00 +16°C° 0 mm 1 mps 651 mmHg 86%
    06:00 +19°C° 0 mm 1 mps 651 mmHg 79%
    07:00 +20°C° 0 mm 1 mps 652 mmHg 73%
    08:00 +22°C° 0 mm 1 mps 653 mmHg 67%
    09:00 +23°C° 0 mm 2 mps 652 mmHg 64%
    10:00 +24°C° 0 mm 2 mps 652 mmHg 61%
    11:00 +25°C° 0 mm 3 mps 652 mmHg 57%
    12:00 +26°C° 0 mm 3 mps 651 mmHg 58%
    13:00 +26°C° 0 mm 3 mps 651 mmHg 58%
    14:00 +27°C° 0 mm 3 mps 650 mmHg 58%
    15:00 +26°C° 0.1 mm 3 mps 649 mmHg 60%
    16:00 +26°C° 0.1 mm 3 mps 649 mmHg 61%
    17:00 +26°C° 0.1 mm 3 mps 648 mmHg 63%
    18:00 +24°C° 0.1 mm 2 mps 649 mmHg 68%
    19:00 +23°C° 0.1 mm 2 mps 649 mmHg 73%
    20:00 +22°C° 0.1 mm 1 mps 650 mmHg 78%
    21:00 +22°C° 0 mm 1 mps 650 mmHg 79%
    22:00 +21°C° 0 mm 1 mps 651 mmHg 81%
    23:00 +21°C° 0 mm 1 mps 651 mmHg 82%

    20 November, Tuesday

    Time Temperature Precipitation Wind Pressure Humidity
    00:00 +21°C° 0 mm 1 mps 651 mmHg 83%
    01:00 +20°C° 0 mm 1 mps 650 mmHg 84%
    02:00 +20°C° 0 mm 1 mps 650 mmHg 85%
    03:00 +20°C° 0 mm 1 mps 650 mmHg 86%
    04:00 +20°C° 0 mm 1 mps 650 mmHg 86%
    05:00 +19°C° 0 mm 1 mps 650 mmHg 86%
    06:00 +21°C° 0 mm 1 mps 651 mmHg 80%
    07:00 +23°C° 0 mm 1 mps 652 mmHg 73%
    08:00 +24°C° 0 mm 1 mps 653 mmHg 67%
    09:00 +25°C° 0 mm 2 mps 653 mmHg 63%
    10:00 +27°C° 0 mm 2 mps 653 mmHg 59%
    11:00 +28°C° 0 mm 3 mps 653 mmHg 55%
    12:00 +28°C° 0.2 mm 3 mps 652 mmHg 54%
    13:00 +29°C° 0.2 mm 3 mps 651 mmHg 53%
    14:00 +29°C° 0.2 mm 3 mps 651 mmHg 52%
    15:00 +28°C° 0.3 mm 3 mps 650 mmHg 55%
    16:00 +28°C° 0.3 mm 3 mps 650 mmHg 57%
    17:00 +27°C° 0.3 mm 3 mps 650 mmHg 60%
    18:00 +26°C° 0.2 mm 3 mps 650 mmHg 65%
    19:00 +25°C° 0.2 mm 2 mps 650 mmHg 70%
    20:00 +24°C° 0.2 mm 1 mps 651 mmHg 75%
    21:00 +23°C° 0.1 mm 1 mps 651 mmHg 77%
    22:00 +23°C° 0.1 mm 1 mps 651 mmHg 78%
    23:00 +22°C° 0.1 mm 1 mps 652 mmHg 79%

    21 November, Wednesday

    Time Temperature Precipitation Wind Pressure Humidity
    00:00 +22°C° 0 mm 1 mps 651 mmHg 80%
    01:00 +22°C° 0 mm 1 mps 651 mmHg 80%
    02:00 +21°C° 0 mm 1 mps 650 mmHg 80%
    03:00 +21°C° 0 mm 1 mps 650 mmHg 80%
    04:00 +21°C° 0 mm 1 mps 650 mmHg 80%
    05:00 +21°C° 0 mm 1 mps 650 mmHg 80%
    06:00 +22°C° 0 mm 1 mps 650 mmHg 73%
    07:00 +24°C° 0 mm 1 mps 651 mmHg 66%
    08:00 +26°C° 0 mm 2 mps 652 mmHg 59%
    09:00 +27°C° 0.1 mm 2 mps 652 mmHg 55%
    10:00 +29°C° 0.1 mm 3 mps 652 mmHg 50%
    11:00 +30°C° 0.1 mm 4 mps 651 mmHg 46%
    12:00 +32°C° 0.1 mm 4 mps 651 mmHg 45%
    13:00 +33°C° 0.1 mm 4 mps 650 mmHg 45%
    14:00 +33°C° 0.1 mm 4 mps 649 mmHg 44%
    15:00 +32°C° 0.4 mm 4 mps 649 mmHg 47%
    16:00 +32°C° 0.4 mm 4 mps 648 mmHg 49%
    17:00 +30°C° 0.4 mm 4 mps 647 mmHg 52%
    18:00 +29°C° 0.4 mm 3 mps 648 mmHg 58%
    19:00 +27°C° 0.4 mm 2 mps 648 mmHg 64%
    20:00 +25°C° 0.4 mm 2 mps 648 mmHg 69%
    21:00 +25°C° 0.2 mm 1 mps 648 mmHg 71%
    22:00 +25°C° 0.2 mm 1 mps 649 mmHg 73%
    23:00 +24°C° 0.2 mm 1 mps 649 mmHg 75%

    22 November, Thursday

    Time Temperature Precipitation Wind Pressure Humidity
    00:00 +24°C° 0.6 mm 1 mps 648 mmHg 76%
    01:00 +23°C° 0.6 mm 1 mps 648 mmHg 77%
    02:00 +23°C° 0.6 mm 1 mps 647 mmHg 78%
    03:00 +23°C° 0.3 mm 1 mps 647 mmHg 77%
    04:00 +23°C° 0.3 mm 1 mps 647 mmHg 76%
    05:00 +22°C° 0.3 mm 1 mps 647 mmHg 76%
    06:00 +24°C° 0 mm 1 mps 648 mmHg 68%
    07:00 +26°C° 0 mm 1 mps 648 mmHg 61%
    08:00 +27°C° 0 mm 2 mps 649 mmHg 53%
    09:00 +29°C° 0.6 mm 2 mps 649 mmHg 50%
    10:00 +30°C° 0.6 mm 2 mps 650 mmHg 46%
    11:00 +33°C° 0.6 mm 3 mps 650 mmHg 42%
    12:00 +33°C° 0.6 mm 3 mps 650 mmHg 42%
    13:00 +34°C° 0.6 mm 3 mps 649 mmHg 41%
    14:00 +34°C° 0.6 mm 4 mps 649 mmHg 41%
    15:00 +31°C° 1.2 mm 3 mps 648 mmHg 47%
    16:00 +30°C° 1.2 mm 3 mps 648 mmHg 53%
    17:00 +28°C° 1.2 mm 3 mps 647 mmHg 60%
    18:00 +26°C° 1.5 mm 3 mps 648 mmHg 68%
    19:00 +24°C° 1.5 mm 3 mps 648 mmHg 77%
    20:00 +21°C° 1.5 mm 3 mps 649 mmHg 86%
    21:00 +21°C° 0.4 mm 3 mps 649 mmHg 86%
    22:00 +21°C° 0.4 mm 3 mps 650 mmHg 85%
    23:00 +20°C° 0.4 mm 3 mps 650 mmHg 85%
    Show more